779  
ASUS43 KMKX 240721  
RWRWI  
 
WISCONSIN REGIONAL WEATHER ROUNDUP  
NATIONAL WEATHER SERVICE MILWAUKEE/SULLIVAN WI  
200 AM CDT SUN MAR 24 2019  
 
NOTE: "FAIR" INDICATES FEW OR NO CLOUDS BELOW 12,000 FEET WITH NO  
SIGNIFICANT WEATHER AND/OR S TO VISIBILITY
.  
 
WIZ001-002-006>008-014>016-023>028-240800-  
NORTHWEST WISCONSIN  
 
CITY SKY/WX TMP DP RH WIND PRES REMARKS
 
SUPERIOR ARPT FAIR 32 27 81 SW3 30.09R  
ASHLAND FAIR 35 26 69 SW9 30.08S WCI 28  
HAYWARD FAIR 28 22 78 CALM 30.10R  
SIREN FAIR 28 24 87 CALM 30.11R  
CUMBERLAND FAIR 30 28 93 CALM 30.10S  
RICE LAKE FAIR 28 27 96 CALM 30.11F  
CHETEK FAIR 27 24 89 CALM 30.11F  
LADYSMITH FAIR 29 25 85 S3 30.12S  
EAU CLAIRE FAIR 30 25 81 CALM 30.11S  
MENOMONIE FAIR 28 24 84 CALM 30.12S  
NEW RICHMOND FAIR 32 29 88 CALM 30.11S  
OSCEOLA FAIR 30 29 96 CALM 30.14S  

 
 
WIZ003>005-009-010-017-018-240800-  
NORTH CENTRAL WISCONSIN  
 
CITY SKY/WX TMP DP RH WIND PRES REMARKS
 
MANITOWISH WTR NOT AVBL  
ARBOR VITAE FAIR 35 26 70 NW5 30.08R WCI 31  
WOODRUFF FAIR 35 26 70 NW5 30.08R WCI 31  
RHINELANDER FAIR 30 21 69 W5 30.07S WCI 25  
EAGLE RIVER FAIR 27 19 71 CALM 30.07R  
LAND O LAKES NOT AVBL  
PHILLIPS FAIR 25 21 83 CALM 30.08S  
TOMAHAWK FAIR 23 19 83 CALM 30.08F  
MEDFORD FAIR 35 24 63 SW5 30.10S WCI 31  
MERRILL FAIR 24 22 94 CALM 30.11S  

 
 
WIZ029-030-035-036-043>047-240800-  
CENTRAL WISCONSIN  
 
CITY SKY/WX TMP DP RH WIND PRES REMARKS
 
WAUSAU FAIR 28 24 85 CALM 30.09S  
MOSINEE FAIR 30 27 86 CALM 30.12S  
MARSHFIELD FAIR 36 27 69 SW5 30.10S WCI 32  
STEVENS POINT FAIR 37 27 68 SW3 30.12F  
WAUPACA FAIR 36 28 74 CALM 30.13S  
WAUTOMA NOT AVBL  
WISC RAPIDS FAIR 34 25 69 SW3 30.13S  
CAMP DOUGLAS NOT AVBL  

 
 
WIZ011>013-019>022-031-037>040-048>050-240800-  
NORTHEAST WISCONSIN  
 
CITY SKY/WX TMP DP RH WIND PRES REMARKS
 
ANTIGO FAIR 31 24 73 W7 30.09R WCI 25  
SHAWANO FAIR 35 27 73 SW3 30.11R  
OCONTO FAIR 37 28 71 SW6 30.10R WCI 32  
STURGEON BAY FAIR 40 30 67 SW12 30.10S WCI 33  
GREEN BAY FAIR 40 30 67 SW7 30.12R  
MANITOWOC FAIR 36 35 96 SW6 30.14S WCI 31  
APPLETON FAIR 37 28 70 SW8 30.11S WCI 31  
CLINTONVILLE FAIR 37 28 69 CALM 30.11F  
OSHKOSH FAIR 39 30 70 SW8 30.13S WCI 33  

 
 
WIZ032>034-041-042-053>061-240800-  
SOUTHWEST WISCONSIN  
 
CITY SKY/WX TMP DP RH WIND PRES REMARKS
 
LA CROSSE CLOUDY 39 32 76 CALM 30.12F  
SPARTA FAIR 31 27 86 CALM 30.13F  
VIROQUA CLOUDY 41 32 70 SE5 30.12F  
BOSCOBEL FAIR 38 32 79 CALM 30.14F  
PRAIRIE DU CHI CLOUDY 42 32 68 S3 30.12F  
PLATTEVILLE CLOUDY 42 33 72 SE6 30.14F  

 
 
WIZ056-057-062-063-064-067-068-240800-  
SOUTH CENTRAL WISCONSIN  
 
CITY SKY/WX TMP DP RH WIND PRES REMARKS
 
REEDSBURG CLOUDY 39 30 70 CALM 30.13F  
BARABOO/DELLS FAIR 39 30 68 CALM 30.13F  
LONE ROCK FAIR 39 34 82 CALM 30.14F  
MINERAL POINT FAIR 41 34 75 SE5 30.13S  
MADISON FAIR 41 30 65 MISG 30.15S  
MIDDLETON FAIR 39 34 81 CALM 30.15F  
WATERTOWN FAIR 37 31 78 CALM 30.14F  
MONROE FAIR 41 30 65 MISG 30.14S  
JANESVILLE FAIR 41 30 65 CALM 30.15F  

 
 
WIZ051-052-058>065-066-070>072-240800-  
SOUTHEAST WISCONSIN  
 
CITY SKY/WX TMP DP RH WIND PRES REMARKS
 
MILWAUKEE CLOUDY 39 27 62 S5 30.16F  
WAUKESHA FAIR 36 28 75 S3 30.16F  
MILWAUKEE/TIMM FAIR 37 27 65 SW3 30.17S  
RACINE FAIR 37 25 61 SW5 30.18F WCI 33  
KENOSHA FAIR 39 29 67 S5 30.17F  
FOND DU LAC FAIR 38 30 73 SW8 30.14F WCI 32  
SHEBOYGAN FAIR 35 29 78 SW9 30.14F WCI 28  
WEST BEND FAIR 37 28 70 SW3 30.15F  
JUNEAU FAIR 37 31 79 S3 30.16S  

 
 
LSZ147-162-240800-  
LAKE SUPERIOR  
 
STATION/POSITION TIME TEMP WIND PRES WAVE
 
AIR SEA DIR/SP/G HT/PER  
(UTC) (F) (DEG/KT/KT) (MB) (FT/S)  
DEVILS ISLAND 0700 39 230/ 17/ 20 1018.3R  
SAXON HARBOR 0630 39 180/ 6/ 10 1017.9S  

 
 
LMZ867-665-643>646-240800-  
LAKE MICHIGAN  
 
STATION/POSITION TIME TEMP WIND PRES WAVE
 
AIR SEA DIR/SP/G HT/PER  
(UTC) (F) (DEG/KT/KT) (MB) (FT/S)  
NORTHPORT PIER 0640 39 CALM / 5 1017.9S  
KEWAUNEE LAKESHO 0654 38 1019.0R  
SHEBOYGAN LAKESH 0700 39 220/ 10/ 11 1021.2F  
PORT WASHINGTON 0630 39 260/ 5/ 6 1022.4F  
MILWAUKEE LAKESH 0700 41 N/A  
KENOSHA LAKESH 0700 39 190/ 4/ 5 1021.7  

 
 
TC - TEMPERATURE IN CELSIUS  
VSB - VISIBILITY IN STATUTE MILES  
WCI - WIND CHILL INDEX  
HX - HEAT INDEX  
 
 
 
CLICK HERE TO GO TO PREVIOUS BULLETINS.

The Nexlab WI Page Main Text Page